CAL5226 RCTP-PANC

Flight info

Callsign CAL5226
Flight time 8h 3m
Altitude 31000
Route MOLKA1C MOLKA M750 IMPAL Y755 CARDS DCT HIOTI DCT CBE Y121 SWING Y88 DAIGO/N0497F330 Y889 PUTER A590 PASRO/N0487F340 A590 POWAL/N0490F330 DCT 52N170E DCT PINSO/N0479F340 A590 POOFF/N0478F350 A590 HAMND NEELL7
Aircraft B77L/H-SDE1E2E3FGHIJ2J3J4J5M1RWXY/LB1D1

Departure

Time 2026-05-04 04:51
Airport Taiwan Taoyuan International Airport (RCTP)

Arrival

Time 2026-05-04 12:54
Airport Ted Stevens Anchorage International Airport (PANC)
Time Latitude Longitude Altitude Speed Heading
2026-05-04 04:24 25.09022 121.24313 121 ft 0 kts 140°
2026-05-04 04:35 25.09022 121.24312 121 ft 1 kts 140°
2026-05-04 04:36 25.09034 121.24301 121 ft 2 kts 140°
2026-05-04 04:36 25.09045 121.24290 121 ft 2 kts 140°
2026-05-04 04:36 25.09057 121.24280 121 ft 2 kts 140°
2026-05-04 04:36 25.09068 121.24270 121 ft 2 kts 140°
2026-05-04 04:37 25.09106 121.24242 121 ft 2 kts 178°
2026-05-04 04:37 25.09121 121.24244 121 ft 2 kts 207°
2026-05-04 04:38 25.09132 121.24255 121 ft 2 kts 233°
2026-05-04 04:38 25.09141 121.24268 121 ft 2 kts 231°
2026-05-04 04:38 25.09151 121.24280 121 ft 1 kts 228°
2026-05-04 04:38 25.09152 121.24281 121 ft 0 kts 228°
2026-05-04 04:40 25.09145 121.24272 121 ft 3 kts 228°
2026-05-04 04:40 25.09116 121.24236 121 ft 9 kts 229°
2026-05-04 04:40 25.09061 121.24164 121 ft 14 kts 229°
2026-05-04 04:41 25.08992 121.24076 121 ft 14 kts 229°
2026-05-04 04:41 25.08924 121.23991 121 ft 14 kts 229°
2026-05-04 04:41 25.08858 121.23906 121 ft 14 kts 229°
2026-05-04 04:41 25.08792 121.23821 121 ft 14 kts 229°
2026-05-04 04:42 25.08727 121.23739 121 ft 14 kts 229°
2026-05-04 04:42 25.08663 121.23656 121 ft 14 kts 229°
2026-05-04 04:42 25.08599 121.23573 121 ft 14 kts 229°
2026-05-04 04:42 25.08535 121.23492 121 ft 14 kts 229°
2026-05-04 04:43 25.08471 121.23410 121 ft 13 kts 229°
2026-05-04 04:43 25.08415 121.23340 121 ft 11 kts 229°
2026-05-04 04:43 25.08367 121.23279 121 ft 9 kts 229°
2026-05-04 04:43 25.08327 121.23229 121 ft 8 kts 229°
2026-05-04 04:44 25.08293 121.23186 121 ft 6 kts 229°
2026-05-04 04:44 25.08265 121.23151 121 ft 5 kts 229°
2026-05-04 04:44 25.08244 121.23123 121 ft 4 kts 229°
2026-05-04 04:44 25.08227 121.23102 121 ft 3 kts 229°
2026-05-04 04:45 25.08212 121.23083 121 ft 4 kts 229°
2026-05-04 04:45 25.08189 121.23054 121 ft 6 kts 230°
2026-05-04 04:45 25.08157 121.23011 121 ft 8 kts 230°
2026-05-04 04:47 25.07799 121.22555 121 ft 16 kts 229°
2026-05-04 04:47 25.07722 121.22457 121 ft 17 kts 229°
2026-05-04 04:47 25.07641 121.22354 121 ft 18 kts 229°
2026-05-04 04:47 25.07558 121.22248 121 ft 18 kts 229°
2026-05-04 04:48 25.07472 121.22143 121 ft 18 kts 228°
2026-05-04 04:49 25.07173 121.21755 121 ft 12 kts 252°
2026-05-04 04:49 25.07212 121.21673 121 ft 12 kts 321°
2026-05-04 04:49 25.07283 121.21627 121 ft 11 kts 355°
2026-05-04 04:49 25.07343 121.21666 121 ft 12 kts 50°
2026-05-04 04:50 25.07508 121.21878 121 ft 65 kts 49°
2026-05-04 04:50 25.07930 121.22414 121 ft 119 kts 50°
2026-05-04 04:50 25.08592 121.23251 122 ft 166 kts 50°
2026-05-04 04:50 25.09384 121.24284 456 ft 179 kts 51°
2026-05-04 04:51 25.10109 121.25205 1090 ft 178 kts 50°
2026-05-04 04:51 25.10881 121.26186 1702 ft 172 kts 49°
2026-05-04 04:51 25.11713 121.27244 1769 ft 191 kts 49°
2026-05-04 04:51 25.12619 121.28394 2008 ft 201 kts 49°
2026-05-04 04:52 25.13559 121.29600 2248 ft 215 kts 50°
2026-05-04 04:52 25.14591 121.30946 2460 ft 231 kts 50°
2026-05-04 04:52 25.15657 121.32330 2997 ft 233 kts 50°
2026-05-04 04:52 25.16723 121.33716 3517 ft 237 kts 50°
2026-05-04 04:53 25.17817 121.35137 3887 ft 245 kts 51°
2026-05-04 04:53 25.18936 121.36591 4317 ft 251 kts 51°
2026-05-04 04:53 25.20082 121.38081 4710 ft 258 kts 51°
2026-05-04 04:53 25.21250 121.39599 5105 ft 264 kts 51°
2026-05-04 04:54 25.22453 121.41164 5500 ft 271 kts 52°
2026-05-04 04:54 25.23677 121.42757 5911 ft 275 kts 52°
2026-05-04 04:54 25.24936 121.44395 6367 ft 279 kts 52°
2026-05-04 04:54 25.26198 121.46038 6803 ft 282 kts 51°
2026-05-04 04:55 25.27472 121.47697 7178 ft 287 kts 51°
2026-05-04 04:55 25.28718 121.49455 7483 ft 293 kts 64°
2026-05-04 04:55 25.29306 121.51588 7789 ft 293 kts 91°
2026-05-04 04:55 25.29302 121.53864 8156 ft 297 kts 90°
2026-05-04 04:56 25.29498 121.56145 8530 ft 302 kts 83°
2026-05-04 04:56 25.29867 121.58453 8838 ft 310 kts 80°
2026-05-04 04:56 25.30310 121.60799 9181 ft 315 kts 79°
2026-05-04 04:56 25.30773 121.63168 9524 ft 320 kts 79°
2026-05-04 04:57 25.31249 121.65604 9861 ft 325 kts 79°
2026-05-04 04:57 25.31731 121.68068 10157 ft 330 kts 79°
2026-05-04 04:57 25.32220 121.70576 10464 ft 337 kts 79°
2026-05-04 04:57 25.32719 121.73139 10554 ft 353 kts 79°
2026-05-04 04:58 25.33251 121.75875 10582 ft 370 kts 79°
2026-05-04 04:58 25.33808 121.78738 10660 ft 386 kts 79°
2026-05-04 04:58 25.34375 121.81657 10729 ft 402 kts 79°
2026-05-04 04:58 25.34975 121.84753 10773 ft 419 kts 79°
2026-05-04 04:59 25.35598 121.87965 11034 ft 428 kts 79°
2026-05-04 04:59 25.36223 121.91192 11586 ft 429 kts 79°
2026-05-04 04:59 25.36853 121.94446 12121 ft 432 kts 78°
2026-05-04 04:59 25.37483 121.97709 12566 ft 437 kts 79°
2026-05-04 05:00 25.38124 122.01029 13080 ft 441 kts 78°
2026-05-04 05:00 25.38765 122.04360 13597 ft 445 kts 79°
2026-05-04 05:00 25.40066 122.11128 14711 ft 452 kts 78°
2026-05-04 05:01 25.40717 122.14516 15278 ft 456 kts 79°
2026-05-04 05:01 25.41379 122.17973 15817 ft 461 kts 79°
2026-05-04 05:01 25.42170 122.21466 16395 ft 464 kts 71°
2026-05-04 05:01 25.43270 122.24865 16895 ft 470 kts 69°
2026-05-04 05:02 25.44425 122.28286 17356 ft 476 kts 69°
2026-05-04 05:02 25.45576 122.31692 17917 ft 478 kts 69°
2026-05-04 05:02 25.46747 122.35169 18475 ft 481 kts 69°
2026-05-04 05:02 25.47922 122.38660 18943 ft 486 kts 69°
2026-05-04 05:03 25.49120 122.42226 19424 ft 490 kts 69°
2026-05-04 05:03 25.50322 122.45808 19907 ft 494 kts 69°
2026-05-04 05:04 25.53940 122.56622 21282 ft 506 kts 69°
2026-05-04 05:04 25.55170 122.60304 21750 ft 509 kts 69°
2026-05-04 05:04 25.56401 122.63995 22234 ft 511 kts 69°
2026-05-04 05:06 25.65243 122.90567 25061 ft 535 kts 69°
2026-05-04 05:06 25.66563 122.94474 25491 ft 537 kts 69°
2026-05-04 05:06 25.67880 122.98376 25889 ft 541 kts 69°
2026-05-04 05:07 25.69216 123.02338 26281 ft 544 kts 69°
2026-05-04 05:07 25.70553 123.06311 26676 ft 548 kts 69°
2026-05-04 05:07 25.71896 123.10306 27077 ft 551 kts 69°
2026-05-04 05:09 25.82775 123.42831 30501 ft 569 kts 69°
2026-05-04 05:09 25.84149 123.46933 31001 ft 569 kts 68°
2026-05-04 05:10 25.85730 123.50751 31102 ft 571 kts 60°
2026-05-04 05:10 25.87843 123.54514 31105 ft 566 kts 51°
2026-05-04 05:10 25.93193 123.60861 31110 ft 561 kts 34°
2026-05-04 05:11 25.99830 123.65491 31109 ft 547 kts 20°
2026-05-04 05:11 26.06550 123.68939 31100 ft 549 kts 19°
2026-05-04 05:12 26.13537 123.72534 31093 ft 546 kts 19°
2026-05-04 05:12 26.20422 123.76108 31095 ft 548 kts 19°
2026-05-04 05:13 26.27409 123.79755 31099 ft 550 kts 19°
2026-05-04 05:13 26.34327 123.83379 31100 ft 549 kts 20°
2026-05-04 05:14 26.41273 123.87028 31105 ft 549 kts 19°
2026-05-04 05:14 26.48243 123.90698 31107 ft 551 kts 19°
2026-05-04 05:15 26.55204 123.94370 31110 ft 550 kts 19°
2026-05-04 05:15 26.62135 123.98151 31103 ft 555 kts 25°
2026-05-04 05:16 26.68272 124.03451 31114 ft 567 kts 42°
2026-05-04 05:16 26.73483 124.10176 31114 ft 569 kts 47°
2026-05-04 05:17 26.78570 124.17001 31119 ft 570 kts 48°
2026-05-04 05:17 26.83670 124.23852 31119 ft 569 kts 47°
2026-05-04 05:18 26.88770 124.30710 31127 ft 570 kts 47°
2026-05-04 05:18 26.93842 124.37540 31127 ft 568 kts 47°
2026-05-04 05:19 26.98913 124.44379 31127 ft 569 kts 47°
2026-05-04 05:19 27.03997 124.51241 31131 ft 570 kts 47°
2026-05-04 05:20 27.09047 124.58065 31134 ft 568 kts 47°
2026-05-04 05:20 27.14149 124.64972 31125 ft 570 kts 47°
2026-05-04 05:21 27.19241 124.71876 31110 ft 570 kts 48°
2026-05-04 05:21 27.24313 124.78763 31112 ft 571 kts 48°
2026-05-04 05:22 27.29361 124.85629 31110 ft 570 kts 48°
2026-05-04 05:22 27.34460 124.92574 31113 ft 570 kts 48°
2026-05-04 05:23 27.39485 124.99430 31112 ft 571 kts 48°
2026-05-04 05:23 27.44623 125.06377 31112 ft 571 kts 48°
2026-05-04 05:24 27.49686 125.13206 31115 ft 570 kts 47°
2026-05-04 05:24 27.54811 125.20129 31115 ft 573 kts 47°
2026-05-04 05:25 27.59935 125.27066 31119 ft 572 kts 47°
2026-05-04 05:25 27.65028 125.33971 31119 ft 573 kts 48°
2026-05-04 05:26 27.70179 125.40968 31117 ft 573 kts 48°
2026-05-04 05:26 27.75291 125.47924 31116 ft 574 kts 47°
2026-05-04 05:28 27.95734 125.75854 31107 ft 574 kts 48°
2026-05-04 05:29 28.00875 125.82907 31106 ft 574 kts 48°
2026-05-04 05:29 28.05973 125.89913 31105 ft 574 kts 48°
2026-05-04 05:31 28.26384 126.18076 31104 ft 577 kts 48°
2026-05-04 05:32 28.31483 126.25141 31101 ft 578 kts 48°
2026-05-04 05:33 28.39114 126.35737 31111 ft 579 kts 48°
2026-05-04 05:33 28.44192 126.42802 31112 ft 578 kts 48°
2026-05-04 05:34 28.49302 126.49925 31114 ft 578 kts 48°
2026-05-04 05:34 28.54393 126.57031 31113 ft 580 kts 48°
2026-05-04 05:35 28.59483 126.64150 31123 ft 579 kts 48°
2026-05-04 05:35 28.64583 126.71295 31099 ft 581 kts 49°
2026-05-04 05:36 28.69681 126.78449 31103 ft 579 kts 49°
2026-05-04 05:36 28.74797 126.85640 31109 ft 582 kts 49°
2026-05-04 05:37 28.79901 126.92826 31112 ft 580 kts 49°
2026-05-04 05:37 28.84951 126.99950 31108 ft 580 kts 49°
2026-05-04 05:38 28.92594 127.10754 31119 ft 582 kts 49°
2026-05-04 05:38 28.97699 127.17986 31120 ft 582 kts 49°
2026-05-04 05:39 29.05359 127.28861 31119 ft 584 kts 49°
2026-05-04 05:40 29.12957 127.39676 31114 ft 583 kts 49°
2026-05-04 05:40 29.18039 127.46925 31116 ft 583 kts 49°
2026-05-04 05:41 29.23129 127.54199 31115 ft 585 kts 49°
2026-05-04 05:41 29.28188 127.61443 31111 ft 584 kts 49°
2026-05-04 05:42 29.33280 127.68745 31094 ft 582 kts 49°
2026-05-04 05:42 29.38360 127.76043 31095 ft 584 kts 49°
2026-05-04 05:43 29.43422 127.83329 31094 ft 585 kts 50°
2026-05-04 05:45 29.63701 128.12630 31101 ft 586 kts 49°
2026-05-04 05:47 29.84005 128.42163 31100 ft 585 kts 49°
2026-05-04 05:47 29.89053 128.49538 31099 ft 587 kts 50°
2026-05-04 05:48 29.94112 128.56944 31103 ft 588 kts 49°
2026-05-04 05:48 29.99178 128.64374 31103 ft 585 kts 50°
2026-05-04 05:49 30.04222 128.71785 31082 ft 587 kts 50°
2026-05-04 05:49 30.09264 128.79207 31084 ft 586 kts 50°
2026-05-04 05:51 30.29476 129.09099 31076 ft 587 kts 50°
2026-05-04 05:52 30.34541 129.16623 31087 ft 592 kts 50°
2026-05-04 05:52 30.39605 129.24162 31082 ft 591 kts 50°
2026-05-04 05:54 30.59759 129.54309 31090 ft 591 kts 51°
2026-05-04 05:55 30.64802 129.61887 31086 ft 594 kts 51°
2026-05-04 05:55 30.69852 129.69492 31064 ft 591 kts 52°
2026-05-04 05:56 30.74901 129.77109 31067 ft 596 kts 51°
2026-05-04 05:56 30.79947 129.84737 31072 ft 597 kts 51°
2026-05-04 05:57 30.84919 129.92487 31072 ft 595 kts 57°
2026-05-04 05:57 30.89341 130.00705 31078 ft 599 kts 59°
2026-05-04 05:58 30.93719 130.08954 31081 ft 596 kts 59°
2026-05-04 05:58 30.98102 130.17226 31082 ft 596 kts 59°
2026-05-04 05:59 31.02473 130.25490 31080 ft 599 kts 58°
2026-05-04 05:59 31.06836 130.33754 31088 ft 597 kts 58°
2026-05-04 06:00 31.11182 130.42004 31072 ft 598 kts 58°
2026-05-04 06:00 31.15597 130.50401 31066 ft 594 kts 58°
2026-05-04 06:01 31.19949 130.58696 31067 ft 597 kts 58°
2026-05-04 06:03 31.37250 130.91849 31050 ft 597 kts 58°
2026-05-04 06:05 31.56650 131.29367 31034 ft 599 kts 58°
2026-05-04 06:06 31.60957 131.37743 31031 ft 599 kts 59°
2026-05-04 06:06 31.65272 131.46164 31028 ft 603 kts 58°
2026-05-04 06:07 31.69586 131.54605 31020 ft 599 kts 58°
2026-05-04 06:07 31.73873 131.63010 31011 ft 600 kts 58°
2026-05-04 06:08 31.78169 131.71449 30979 ft 599 kts 59°
2026-05-04 06:08 31.82468 131.79913 30984 ft 600 kts 58°
2026-05-04 06:09 31.86728 131.88322 30980 ft 599 kts 59°
2026-05-04 06:11 32.03793 132.22188 30975 ft 602 kts 59°
2026-05-04 06:13 32.19960 132.56937 30962 ft 603 kts 64°
2026-05-04 06:14 32.32991 132.88028 30950 ft 605 kts 65°
2026-05-04 06:15 32.36720 132.96936 30945 ft 603 kts 65°
2026-05-04 06:15 32.40460 133.05890 30946 ft 602 kts 64°
2026-05-04 06:16 32.44209 133.14882 30950 ft 607 kts 65°
2026-05-04 06:16 32.47934 133.23836 30954 ft 603 kts 64°
2026-05-04 06:17 32.51649 133.32790 30951 ft 606 kts 65°
2026-05-04 06:17 32.55380 133.41801 30952 ft 606 kts 65°
2026-05-04 06:18 32.59073 133.50743 30950 ft 606 kts 64°
2026-05-04 06:20 32.73816 133.86665 30932 ft 605 kts 65°
2026-05-04 06:21 32.82686 134.09334 30919 ft 602 kts 75°
2026-05-04 06:22 32.85126 134.18890 30915 ft 600 kts 76°
2026-05-04 06:25 33.01519 134.85387 30870 ft 599 kts 78°
2026-05-04 06:26 33.03820 134.94850 30864 ft 597 kts 77°
2026-05-04 06:26 33.06131 135.04396 30875 ft 600 kts 77°
2026-05-04 06:27 33.16364 135.25751 30847 ft 604 kts 39°
2026-05-04 06:28 33.22946 135.31976 30859 ft 599 kts 32°
2026-05-04 06:28 33.29596 135.37973 30859 ft 597 kts 33°
2026-05-04 06:29 33.36223 135.43965 30861 ft 599 kts 33°
2026-05-04 06:29 33.42840 135.49966 30867 ft 599 kts 32°
2026-05-04 06:30 33.49506 135.56026 30864 ft 601 kts 33°
2026-05-04 06:30 33.56182 135.62109 30864 ft 602 kts 33°
2026-05-04 06:31 33.62838 135.68190 30853 ft 597 kts 34°
2026-05-04 06:31 33.69492 135.74263 30853 ft 601 kts 32°
2026-05-04 06:33 33.96283 135.98498 30846 ft 602 kts 33°
2026-05-04 06:34 34.02982 136.04593 30842 ft 605 kts 33°
2026-05-04 06:34 34.09654 136.10677 30835 ft 601 kts 33°
2026-05-04 06:36 34.36717 136.35370 30828 ft 608 kts 33°
2026-05-04 06:37 34.43474 136.41548 30827 ft 604 kts 32°
2026-05-04 06:37 34.50327 136.47775 30829 ft 609 kts 31°
2026-05-04 06:38 34.57159 136.53996 30822 ft 607 kts 32°
2026-05-04 06:40 34.84606 136.79211 30789 ft 613 kts 33°
2026-05-04 06:40 34.91528 136.85306 30789 ft 610 kts 30°
2026-05-04 06:41 34.98589 136.91273 30789 ft 610 kts 29°
2026-05-04 06:41 35.04879 136.96614 30795 ft 611 kts 30°
2026-05-04 06:42 35.11758 137.02477 30782 ft 613 kts 29°
2026-05-04 06:44 35.38826 137.28131 30792 ft 625 kts 52°
2026-05-04 06:44 35.43274 137.37309 30773 ft 620 kts 66°
2026-05-04 06:45 35.46737 137.46391 30775 ft 623 kts 67°
2026-05-04 06:45 35.50391 137.55984 30773 ft 620 kts 66°
2026-05-04 06:46 35.54056 137.65611 30785 ft 620 kts 67°
2026-05-04 06:46 35.57698 137.75214 30752 ft 618 kts 68°
2026-05-04 06:48 35.72007 138.13844 30747 ft 616 kts 66°
2026-05-04 06:50 35.86337 138.51083 30721 ft 619 kts 67°
2026-05-04 06:51 35.89665 138.59813 30712 ft 617 kts 68°
2026-05-04 06:51 35.93185 138.69099 30700 ft 615 kts 68°
2026-05-04 06:52 35.96799 138.78677 30691 ft 616 kts 68°
2026-05-04 06:52 36.00461 138.88411 30679 ft 618 kts 68°
2026-05-04 06:53 36.04082 138.98064 30620 ft 618 kts 68°
2026-05-04 06:53 36.07688 139.07703 30598 ft 615 kts 68°
2026-05-04 06:54 36.11320 139.17444 30572 ft 615 kts 68°
2026-05-04 06:54 36.14875 139.27005 30581 ft 617 kts 68°
2026-05-04 06:55 36.19312 139.36131 30578 ft 617 kts 54°
2026-05-04 06:55 36.24361 139.44719 30575 ft 618 kts 53°
2026-05-04 06:57 36.44612 139.79275 30571 ft 619 kts 55°
2026-05-04 06:58 36.49714 139.88001 30578 ft 620 kts 57°
2026-05-04 06:58 36.54459 139.96907 30573 ft 615 kts 59°
2026-05-04 06:59 36.59221 140.05972 30581 ft 618 kts 59°
2026-05-04 06:59 36.64040 140.15146 30578 ft 619 kts 58°
2026-05-04 07:01 36.78925 140.47560 30614 ft 615 kts 69°
2026-05-04 07:01 36.80681 140.52524 30621 ft 618 kts 70°
2026-05-04 07:02 36.84200 140.62486 30616 ft 616 kts 69°
2026-05-04 07:02 36.87701 140.72418 30604 ft 611 kts 70°
2026-05-04 07:03 36.91161 140.82275 30605 ft 618 kts 71°
2026-05-04 07:03 36.94622 140.92157 30607 ft 616 kts 70°
2026-05-04 07:04 36.98076 141.02052 30623 ft 614 kts 70°
2026-05-04 07:04 37.01483 141.11844 30635 ft 615 kts 70°
2026-05-04 07:05 37.04934 141.21799 30630 ft 615 kts 69°
2026-05-04 07:05 37.08350 141.31679 30638 ft 613 kts 69°
2026-05-04 07:06 37.13408 141.46376 30606 ft 613 kts 69°
2026-05-04 07:07 37.16810 141.56297 30614 ft 611 kts 70°
2026-05-04 07:09 37.30263 141.95874 30595 ft 611 kts 70°
2026-05-04 07:09 37.33651 142.05925 30606 ft 615 kts 70°
2026-05-04 07:10 37.36985 142.15846 30606 ft 611 kts 70°
2026-05-04 07:12 37.50250 142.55664 30615 ft 610 kts 70°
2026-05-04 07:12 37.53495 142.65488 30614 ft 606 kts 71°
2026-05-04 07:13 37.56651 142.75105 30595 ft 605 kts 71°
2026-05-04 07:13 37.59852 142.85084 30598 ft 604 kts 72°
2026-05-04 07:14 37.67788 143.09985 30611 ft 604 kts 71°
2026-05-04 07:15 37.70930 143.19904 30610 ft 605 kts 71°
2026-05-04 07:15 37.74074 143.29855 30615 ft 602 kts 72°
2026-05-04 07:16 37.77198 143.39784 30616 ft 604 kts 71°
2026-05-04 07:16 37.80308 143.49696 30618 ft 604 kts 71°
2026-05-04 07:17 37.83323 143.59787 30624 ft 601 kts 75°
2026-05-04 07:17 37.86025 143.69936 30601 ft 601 kts 76°
2026-05-04 07:18 37.88715 143.80048 30606 ft 601 kts 76°
2026-05-04 07:18 37.91386 143.90086 30608 ft 601 kts 76°
2026-05-04 07:19 37.94078 144.00218 30609 ft 601 kts 75°
2026-05-04 07:19 37.96762 144.10342 30610 ft 599 kts 75°
2026-05-04 07:20 37.99466 144.20573 30613 ft 599 kts 76°
2026-05-04 07:20 38.02128 144.30684 30611 ft 601 kts 75°
2026-05-04 07:22 38.12732 144.71338 30581 ft 596 kts 76°
2026-05-04 07:23 38.15362 144.81525 30578 ft 599 kts 76°
2026-05-04 07:23 38.17941 144.91548 30581 ft 596 kts 76°
2026-05-04 07:24 38.20534 145.01671 30597 ft 596 kts 75°
2026-05-04 07:24 38.23150 145.11925 30596 ft 596 kts 76°
2026-05-04 07:26 38.34573 145.52054 30590 ft 601 kts 56°
2026-05-04 07:27 38.40089 145.60245 30591 ft 599 kts 41°
2026-05-04 07:27 38.46326 145.67505 30571 ft 602 kts 40°
2026-05-04 07:28 38.52594 145.74823 30570 ft 600 kts 41°
2026-05-04 07:28 38.58856 145.82190 30568 ft 601 kts 40°
2026-05-04 07:29 38.65099 145.89575 30572 ft 603 kts 40°
2026-05-04 07:29 38.71298 145.96939 30573 ft 602 kts 41°
2026-05-04 07:30 38.77430 146.04251 30574 ft 602 kts 41°
2026-05-04 07:30 38.83555 146.11577 30572 ft 599 kts 40°
2026-05-04 07:31 38.89702 146.18947 30563 ft 602 kts 40°
2026-05-04 07:33 39.14177 146.48497 30559 ft 597 kts 40°
2026-05-04 07:33 39.20348 146.55992 30556 ft 603 kts 40°
2026-05-04 07:34 39.26505 146.63492 30556 ft 602 kts 40°
2026-05-04 07:34 39.32666 146.71016 30537 ft 600 kts 40°
2026-05-04 07:35 39.38805 146.78532 30536 ft 603 kts 40°
2026-05-04 07:35 39.44955 146.86079 30534 ft 602 kts 41°
2026-05-04 07:36 39.51069 146.93605 30536 ft 602 kts 40°
2026-05-04 07:38 39.75686 147.24092 30535 ft 604 kts 41°
2026-05-04 07:38 39.81764 147.31670 30539 ft 602 kts 41°
2026-05-04 07:39 39.87871 147.39300 30543 ft 605 kts 41°
2026-05-04 07:39 39.93932 147.46895 30541 ft 605 kts 41°
2026-05-04 07:40 40.00026 147.54552 30538 ft 604 kts 40°
2026-05-04 07:40 40.06081 147.62178 30538 ft 604 kts 41°
2026-05-04 07:41 40.12146 147.69838 30499 ft 605 kts 42°
2026-05-04 07:41 40.18174 147.77470 30504 ft 605 kts 42°
2026-05-04 07:42 40.24218 147.85144 30514 ft 603 kts 42°
2026-05-04 07:42 40.30261 147.92835 30514 ft 602 kts 42°
2026-05-04 07:43 40.36302 148.00543 30510 ft 603 kts 41°
2026-05-04 07:43 40.42273 148.08185 30510 ft 605 kts 42°
2026-05-04 07:44 40.48295 148.15910 30508 ft 603 kts 42°
2026-05-04 07:44 40.54337 148.23682 30506 ft 604 kts 42°
2026-05-04 07:45 40.60312 148.31389 30508 ft 601 kts 42°
2026-05-04 07:45 40.66321 148.39159 30508 ft 602 kts 41°
2026-05-04 07:46 40.72293 148.46901 30512 ft 603 kts 41°
2026-05-04 07:46 40.78256 148.54654 30506 ft 601 kts 41°
2026-05-04 07:47 40.84219 148.62427 30507 ft 602 kts 41°
2026-05-04 07:49 41.08039 148.93684 30501 ft 603 kts 42°
2026-05-04 07:49 41.13985 149.01546 30486 ft 598 kts 42°
2026-05-04 07:50 41.15258 149.03233 30488 ft 598 kts 41°
2026-05-04 07:51 41.17035 149.05588 30497 ft 599 kts 42°
2026-05-04 07:51 41.19743 149.09180 30489 ft 601 kts 42°
2026-05-04 07:52 41.23064 149.13592 30494 ft 601 kts 41°
2026-05-04 07:52 41.29036 149.21545 30499 ft 601 kts 42°
2026-05-04 07:54 41.52524 149.53030 30495 ft 600 kts 42°
2026-05-04 07:55 41.58398 149.60959 30508 ft 600 kts 42°
2026-05-04 07:55 41.64278 149.68916 30484 ft 599 kts 43°
2026-05-04 07:56 41.70152 149.76888 30485 ft 599 kts 42°
2026-05-04 07:56 41.75974 149.84811 30498 ft 599 kts 42°
2026-05-04 07:57 41.81864 149.92850 30494 ft 600 kts 42°
2026-05-04 07:57 41.87722 150.00867 30488 ft 599 kts 42°
2026-05-04 07:58 41.93576 150.08899 30494 ft 601 kts 42°
2026-05-04 07:58 41.99397 150.16910 30498 ft 599 kts 42°
2026-05-04 07:59 42.05223 150.24950 30503 ft 599 kts 42°
2026-05-04 07:59 42.11081 150.33055 30500 ft 599 kts 42°
2026-05-04 08:00 42.16897 150.41127 30499 ft 600 kts 42°
2026-05-04 08:02 42.40078 150.73523 30515 ft 598 kts 43°
2026-05-04 08:02 42.45861 150.81662 30505 ft 598 kts 42°
2026-05-04 08:03 42.51624 150.89798 30514 ft 596 kts 43°
2026-05-04 08:03 42.57406 150.97980 30512 ft 598 kts 43°
2026-05-04 08:04 42.63123 151.06097 30523 ft 597 kts 42°
2026-05-04 08:04 42.68908 151.14333 30532 ft 597 kts 42°
2026-05-04 08:05 42.74634 151.22507 30534 ft 600 kts 42°
2026-05-04 08:05 42.80437 151.30815 30544 ft 599 kts 42°
2026-05-04 08:06 42.86168 151.39047 30547 ft 596 kts 42°
2026-05-04 08:06 42.91895 151.47292 30547 ft 601 kts 42°
2026-05-04 08:08 43.14698 151.80371 30529 ft 600 kts 43°
2026-05-04 08:11 43.40248 152.17897 30550 ft 595 kts 43°
2026-05-04 08:11 43.48728 152.30463 30571 ft 592 kts 43°
2026-05-04 08:12 43.54339 152.38806 30567 ft 596 kts 42°
2026-05-04 08:12 43.60008 152.47263 30579 ft 595 kts 43°
2026-05-04 08:13 43.65682 152.55749 30581 ft 595 kts 43°
2026-05-04 08:13 43.71266 152.64131 30604 ft 592 kts 43°
2026-05-04 08:14 43.76857 152.72543 30580 ft 594 kts 44°
2026-05-04 08:16 43.99184 153.06395 30617 ft 593 kts 45°
2026-05-04 08:16 44.04692 153.14813 30622 ft 589 kts 44°
2026-05-04 08:17 44.10253 153.23332 30621 ft 591 kts 43°
2026-05-04 08:17 44.15772 153.31815 30621 ft 590 kts 44°
2026-05-04 08:19 44.37767 153.65872 30652 ft 589 kts 44°
2026-05-04 08:20 44.43234 153.74400 30639 ft 591 kts 44°
2026-05-04 08:20 44.48723 153.82991 30654 ft 590 kts 44°
2026-05-04 08:21 44.54200 153.91589 30649 ft 589 kts 44°
2026-05-04 08:21 44.59658 154.00185 30657 ft 588 kts 44°
2026-05-04 08:22 44.65133 154.08829 30667 ft 591 kts 44°
2026-05-04 08:24 44.86844 154.43394 30685 ft 589 kts 45°
2026-05-04 08:24 44.92093 154.52016 30679 ft 588 kts 45°
2026-05-04 08:25 44.97422 154.60814 30719 ft 589 kts 44°
2026-05-04 08:25 45.02786 154.69696 30707 ft 585 kts 44°
2026-05-04 08:27 45.23984 155.05031 30709 ft 586 kts 44°
2026-05-04 08:28 45.29261 155.13896 30718 ft 587 kts 45°
2026-05-04 08:28 45.34549 155.22806 30718 ft 587 kts 45°
2026-05-04 08:29 45.39802 155.31686 30734 ft 587 kts 45°
2026-05-04 08:31 45.60838 155.67528 30744 ft 587 kts 45°
2026-05-04 08:33 45.81719 156.03569 30775 ft 585 kts 45°
2026-05-04 08:35 46.02390 156.39705 30796 ft 587 kts 45°
2026-05-04 08:35 46.07549 156.48802 30803 ft 585 kts 45°
2026-05-04 08:37 46.25645 156.80936 30808 ft 588 kts 45°
2026-05-04 08:38 46.30782 156.90124 30830 ft 590 kts 45°
2026-05-04 08:38 46.35999 156.99487 30838 ft 593 kts 45°
2026-05-04 08:40 46.56495 157.36592 30868 ft 588 kts 44°
2026-05-04 08:41 46.61573 157.45862 30872 ft 585 kts 44°
2026-05-04 08:41 46.66663 157.55180 30887 ft 587 kts 44°
2026-05-04 08:42 46.71710 157.64456 30889 ft 586 kts 44°
2026-05-04 08:42 46.76789 157.73822 30874 ft 584 kts 45°
2026-05-04 08:43 46.81837 157.83157 30879 ft 588 kts 45°
2026-05-04 08:43 46.86877 157.92517 30886 ft 585 kts 45°
2026-05-04 08:44 46.91944 158.01953 30887 ft 585 kts 45°
2026-05-04 08:46 47.12081 158.39786 30880 ft 584 kts 45°
2026-05-04 08:46 47.17067 158.49232 30892 ft 584 kts 45°
2026-05-04 08:47 47.22072 158.58748 30902 ft 586 kts 45°
2026-05-04 08:47 47.27060 158.68265 30887 ft 586 kts 46°
2026-05-04 08:48 47.32049 158.77818 30884 ft 586 kts 46°
2026-05-04 08:48 47.37029 158.87389 30895 ft 586 kts 46°
2026-05-04 08:49 47.41999 158.96970 30903 ft 588 kts 46°
2026-05-04 08:50 47.59336 159.30659 30906 ft 586 kts 45°
2026-05-04 08:51 47.64232 159.40253 30917 ft 584 kts 45°
2026-05-04 08:51 47.69082 159.49789 30916 ft 579 kts 45°
2026-05-04 08:52 47.73946 159.59378 30924 ft 584 kts 45°
2026-05-04 08:52 47.78853 159.69092 30908 ft 584 kts 46°
2026-05-04 08:54 47.98163 160.07660 30926 ft 578 kts 45°
2026-05-04 08:55 48.02962 160.17325 30936 ft 580 kts 45°
2026-05-04 08:55 48.07771 160.27054 30929 ft 576 kts 45°
2026-05-04 09:01 48.56635 161.30910 30914 ft 578 kts 47°
2026-05-04 09:01 48.61163 161.40936 30913 ft 576 kts 46°
2026-05-04 09:02 48.65698 161.51015 30915 ft 576 kts 46°
2026-05-04 09:02 48.70228 161.61122 30918 ft 576 kts 46°
2026-05-04 09:03 48.74773 161.71292 30910 ft 583 kts 47°
2026-05-04 09:03 48.79285 161.81438 30913 ft 582 kts 47°
2026-05-04 09:04 48.83789 161.91605 30916 ft 577 kts 46°
2026-05-04 09:04 48.88309 162.01836 30922 ft 580 kts 46°
2026-05-04 09:05 48.92751 162.11946 30915 ft 574 kts 46°
2026-05-04 09:05 48.97225 162.22148 30912 ft 576 kts 46°
2026-05-04 09:06 49.01686 162.32362 30909 ft 580 kts 46°
2026-05-04 09:08 49.19366 162.73250 30891 ft 580 kts 46°
2026-05-04 09:08 49.23761 162.83524 30892 ft 572 kts 46°
2026-05-04 09:09 49.28138 162.93771 30880 ft 579 kts 46°
2026-05-04 09:09 49.32520 163.04097 30884 ft 570 kts 46°
2026-05-04 09:10 49.36847 163.14311 30868 ft 574 kts 46°
2026-05-04 09:10 49.41160 163.24541 30867 ft 572 kts 45°
2026-05-04 09:11 49.45474 163.34817 30867 ft 567 kts 46°
2026-05-04 09:11 49.49776 163.45093 30871 ft 569 kts 45°
2026-05-04 09:12 49.54023 163.55290 30874 ft 563 kts 45°
2026-05-04 09:14 49.70933 163.96242 30859 ft 563 kts 45°
2026-05-04 09:14 49.75168 164.06589 30850 ft 565 kts 45°
2026-05-04 09:15 49.79319 164.16795 30858 ft 561 kts 45°
2026-05-04 09:15 49.83511 164.27127 30842 ft 557 kts 45°
2026-05-04 09:17 50.01929 164.73015 30822 ft 551 kts 45°
2026-05-04 09:18 50.05965 164.83173 30815 ft 556 kts 45°
2026-05-04 09:18 50.09993 164.93358 30834 ft 551 kts 46°
2026-05-04 09:19 50.14014 165.03564 30829 ft 549 kts 46°
2026-05-04 09:19 50.18001 165.13716 30861 ft 549 kts 46°
2026-05-04 09:20 50.22082 165.23712 30861 ft 536 kts 45°
2026-05-04 09:20 50.26123 165.33565 30861 ft 540 kts 45°
2026-05-04 09:21 50.30167 165.43492 30855 ft 534 kts 46°
2026-05-04 09:21 50.34159 165.53337 30841 ft 528 kts 46°
2026-05-04 09:22 50.38071 165.63020 30824 ft 527 kts 46°
2026-05-04 09:22 50.41985 165.72752 30830 ft 521 kts 47°
2026-05-04 09:23 50.45815 165.82314 30832 ft 517 kts 47°
2026-05-04 09:23 50.49617 165.91835 30828 ft 510 kts 48°
2026-05-04 09:25 50.64547 166.29570 30811 ft 503 kts 49°
2026-05-04 09:26 50.68257 166.39029 30802 ft 506 kts 49°
2026-05-04 09:26 50.71927 166.48433 30796 ft 497 kts 50°
2026-05-04 09:27 50.75523 166.57671 30809 ft 500 kts 50°
2026-05-04 09:27 50.79145 166.67012 30798 ft 492 kts 51°
2026-05-04 09:28 50.82753 166.76343 30795 ft 497 kts 51°
2026-05-04 09:28 50.86350 166.85687 30801 ft 497 kts 51°
2026-05-04 09:29 50.89918 166.94995 30790 ft 489 kts 52°
2026-05-04 09:29 50.93475 167.04295 30797 ft 492 kts 52°
2026-05-04 09:30 50.96997 167.13545 30801 ft 490 kts 52°
2026-05-04 09:30 51.00502 167.22783 30803 ft 491 kts 52°
2026-05-04 09:31 51.04007 167.32050 30806 ft 488 kts 53°
2026-05-04 09:31 51.07458 167.41216 30777 ft 482 kts 52°
2026-05-04 09:32 51.10932 167.50465 30813 ft 484 kts 53°
2026-05-04 09:34 51.24568 167.87115 30795 ft 477 kts 54°
2026-05-04 09:34 51.27929 167.96231 30812 ft 474 kts 54°
2026-05-04 09:35 51.31269 168.05319 30806 ft 473 kts 54°
2026-05-04 09:35 51.34588 168.14383 30820 ft 474 kts 54°
2026-05-04 09:37 51.47744 168.50638 30784 ft 467 kts 54°
2026-05-04 09:38 51.50977 168.59624 30773 ft 466 kts 54°
2026-05-04 09:38 51.54228 168.68694 30767 ft 468 kts 55°
2026-05-04 09:39 51.57444 168.77704 30757 ft 463 kts 55°
2026-05-04 09:39 51.60678 168.86787 30773 ft 466 kts 56°
2026-05-04 09:40 51.63888 168.95842 30767 ft 464 kts 56°
2026-05-04 09:40 51.67075 169.04866 30775 ft 462 kts 56°
2026-05-04 09:42 51.79721 169.40977 30802 ft 459 kts 56°
2026-05-04 09:43 51.82857 169.50015 30781 ft 459 kts 57°
2026-05-04 09:43 51.85978 169.59041 30782 ft 459 kts 57°
2026-05-04 09:44 51.89075 169.68033 30795 ft 457 kts 57°
2026-05-04 09:46 52.01514 170.04031 30779 ft 452 kts 51°
2026-05-04 09:46 52.05351 170.12064 30783 ft 451 kts 50°
2026-05-04 09:47 52.09188 170.20158 30788 ft 451 kts 50°
2026-05-04 09:49 52.24246 170.52889 30812 ft 451 kts 51°
2026-05-04 09:51 52.37341 170.81891 30807 ft 448 kts 52°
2026-05-04 09:51 52.41072 170.90218 30804 ft 449 kts 52°
2026-05-04 09:52 52.44794 170.98552 30797 ft 449 kts 52°
2026-05-04 09:52 52.48498 171.06874 30800 ft 448 kts 52°
2026-05-04 09:53 52.52181 171.15175 30804 ft 447 kts 52°
2026-05-04 09:53 52.55864 171.23503 30830 ft 447 kts 53°
2026-05-04 09:54 52.59507 171.31769 30826 ft 447 kts 53°
2026-05-04 09:54 52.63091 171.39926 30834 ft 445 kts 53°
2026-05-04 09:55 52.66707 171.48183 30842 ft 447 kts 53°
2026-05-04 09:55 52.70328 171.56477 30843 ft 447 kts 53°
2026-05-04 09:56 52.73954 171.64810 30843 ft 445 kts 53°
2026-05-04 09:56 52.77567 171.73143 30866 ft 445 kts 54°
2026-05-04 09:57 52.81188 171.81520 30846 ft 444 kts 54°
2026-05-04 09:57 52.84791 171.89882 30850 ft 443 kts 54°
2026-05-04 09:58 52.88378 171.98236 30857 ft 446 kts 54°
2026-05-04 09:58 52.91981 172.06653 30867 ft 443 kts 55°
2026-05-04 10:00 53.06261 172.40297 30867 ft 444 kts 55°
2026-05-04 10:04 53.31309 173.00406 30912 ft 442 kts 56°
2026-05-04 10:04 53.34824 173.08957 30910 ft 441 kts 56°
2026-05-04 10:05 53.38195 173.17184 30919 ft 441 kts 56°
2026-05-04 10:05 53.40905 173.23817 30918 ft 442 kts 56°
2026-05-04 10:06 53.43436 173.30029 30918 ft 445 kts 56°
2026-05-04 10:06 53.46580 173.37769 30920 ft 443 kts 56°
2026-05-04 10:08 53.58588 173.68169 30922 ft 443 kts 58°
2026-05-04 10:08 53.61938 173.77004 30926 ft 444 kts 58°
2026-05-04 10:09 53.65259 173.85782 30936 ft 445 kts 59°
2026-05-04 10:09 53.68584 173.94598 30943 ft 445 kts 59°
2026-05-04 10:10 53.71909 174.03441 30948 ft 446 kts 59°
2026-05-04 10:10 53.75245 174.12341 30948 ft 447 kts 59°
2026-05-04 10:11 53.78588 174.21292 30954 ft 448 kts 59°
2026-05-04 10:11 53.81908 174.30217 30950 ft 446 kts 59°
2026-05-04 10:12 53.85263 174.39264 30958 ft 447 kts 59°
2026-05-04 10:12 53.88601 174.48300 30966 ft 449 kts 59°
2026-05-04 10:13 53.91982 174.57484 30959 ft 450 kts 59°
2026-05-04 10:13 53.95340 174.66638 30958 ft 449 kts 59°
2026-05-04 10:14 53.98658 174.75719 30971 ft 450 kts 60°
2026-05-04 10:16 54.11989 175.12540 30969 ft 451 kts 59°
2026-05-04 10:16 54.15288 175.21738 30975 ft 453 kts 60°
2026-05-04 10:17 54.18599 175.31001 30984 ft 453 kts 59°
2026-05-04 10:19 54.31793 175.68272 31000 ft 455 kts 60°
2026-05-04 10:19 54.35043 175.77539 31009 ft 456 kts 60°
2026-05-04 10:20 54.38320 175.86922 31016 ft 457 kts 60°
2026-05-04 10:20 54.41584 175.96300 31019 ft 455 kts 60°
2026-05-04 10:21 54.44827 176.05653 31014 ft 455 kts 60°
2026-05-04 10:21 54.48069 176.15037 31010 ft 456 kts 60°
2026-05-04 10:22 54.52933 176.29190 31018 ft 456 kts 60°
2026-05-04 10:23 54.56179 176.38680 31019 ft 456 kts 60°
2026-05-04 10:25 54.69057 176.76695 31021 ft 459 kts 61°
2026-05-04 10:25 54.72269 176.86270 31038 ft 460 kts 61°
2026-05-04 10:26 54.75484 176.95889 31043 ft 460 kts 61°
2026-05-04 10:26 54.78702 177.05559 31042 ft 460 kts 61°
2026-05-04 10:27 54.81895 177.15193 31037 ft 461 kts 61°
2026-05-04 10:27 54.85113 177.24937 31039 ft 460 kts 61°
2026-05-04 10:28 54.88296 177.34618 31055 ft 461 kts 61°
2026-05-04 10:28 54.91512 177.44434 31054 ft 461 kts 61°
2026-05-04 10:29 54.94691 177.54181 31063 ft 462 kts 61°
2026-05-04 10:29 54.97867 177.63956 31063 ft 462 kts 60°
2026-05-04 10:30 55.01030 177.73730 31069 ft 463 kts 62°
2026-05-04 10:30 55.04192 177.83542 31070 ft 463 kts 61°
2026-05-04 10:31 55.07349 177.93376 31075 ft 463 kts 61°
2026-05-04 10:32 55.18411 178.28163 31081 ft 464 kts 61°
2026-05-04 10:33 55.21577 178.38213 31088 ft 464 kts 61°
2026-05-04 10:33 55.24710 178.48201 31087 ft 464 kts 61°
2026-05-04 10:34 55.27858 178.58276 31093 ft 465 kts 61°
2026-05-04 10:34 55.30964 178.68260 31093 ft 465 kts 62°
2026-05-04 10:35 55.34090 178.78331 31093 ft 465 kts 61°
2026-05-04 10:35 55.37182 178.88292 31095 ft 463 kts 61°
2026-05-04 10:36 55.40276 178.98305 31106 ft 465 kts 61°
2026-05-04 10:36 55.43357 179.08319 31102 ft 465 kts 61°
2026-05-04 10:37 55.46457 179.18437 31107 ft 466 kts 61°
2026-05-04 10:37 55.49539 179.28542 31114 ft 466 kts 61°
2026-05-04 10:39 55.60233 179.63940 31127 ft 468 kts 61°
2026-05-04 10:40 55.63293 179.74165 31138 ft 469 kts 62°
2026-05-04 10:40 55.66376 179.84517 31136 ft 468 kts 62°
2026-05-04 10:41 55.69399 179.94710 31142 ft 468 kts 61°
2026-05-04 10:41 55.72441 -179.94991 31144 ft 469 kts 61°
2026-05-04 10:42 55.75464 -179.84709 31144 ft 470 kts 61°
2026-05-04 10:42 55.78499 -179.74339 31146 ft 470 kts 61°
2026-05-04 10:43 55.81507 -179.64018 31144 ft 471 kts 61°
2026-05-04 10:45 55.93545 -179.22246 31150 ft 473 kts 62°
2026-05-04 10:45 55.96524 -179.11792 31154 ft 474 kts 62°
2026-05-04 10:46 55.99518 -179.01236 31156 ft 475 kts 61°
2026-05-04 10:46 56.02518 -178.90614 31154 ft 474 kts 61°
2026-05-04 10:47 56.05495 -178.80022 31158 ft 475 kts 61°
2026-05-04 10:47 56.08478 -178.69360 31154 ft 475 kts 61°
2026-05-04 10:49 56.20374 -178.26344 31164 ft 477 kts 62°
2026-05-04 10:50 56.23305 -178.15619 31161 ft 477 kts 62°
2026-05-04 10:52 56.35048 -177.72144 31171 ft 479 kts 61°
2026-05-04 10:52 56.37964 -177.61217 31169 ft 480 kts 61°
2026-05-04 10:54 56.49530 -177.17348 31166 ft 479 kts 62°
2026-05-04 10:56 56.60962 -176.73128 31171 ft 480 kts 62°
2026-05-04 10:57 56.63792 -176.62044 31172 ft 480 kts 62°
2026-05-04 10:57 56.66605 -176.50974 31169 ft 479 kts 62°
2026-05-04 10:58 56.69434 -176.39780 31174 ft 479 kts 62°
2026-05-04 10:58 56.72247 -176.28600 31167 ft 480 kts 62°
2026-05-04 10:59 56.75047 -176.17407 31174 ft 479 kts 62°
2026-05-04 10:59 56.77819 -176.06274 31172 ft 478 kts 62°
2026-05-04 11:00 56.80546 -175.95268 31170 ft 477 kts 62°
2026-05-04 11:02 56.91430 -175.50621 31171 ft 480 kts 62°
2026-05-04 11:05 57.11342 -174.66419 31185 ft 482 kts 62°
2026-05-04 11:06 57.13995 -174.54944 31185 ft 482 kts 62°
2026-05-04 11:06 57.16611 -174.43567 31185 ft 481 kts 62°
2026-05-04 11:10 57.34713 -173.63240 31178 ft 482 kts 62°
2026-05-04 11:12 57.45081 -173.17285 31183 ft 482 kts 63°
2026-05-04 11:12 57.47641 -173.05765 31178 ft 482 kts 63°
2026-05-04 11:13 57.50176 -172.94301 31185 ft 482 kts 63°
2026-05-04 11:13 57.52720 -172.82727 31179 ft 481 kts 63°
2026-05-04 11:14 57.53151 -172.80759 31181 ft 481 kts 63°
2026-05-04 11:16 57.65202 -172.24982 31175 ft 480 kts 64°
2026-05-04 11:16 57.67680 -172.13324 31181 ft 479 kts 64°
2026-05-04 11:17 57.70123 -172.01762 31168 ft 479 kts 64°
2026-05-04 11:19 57.79827 -171.55185 31175 ft 477 kts 64°
2026-05-04 11:19 57.82216 -171.43553 31174 ft 476 kts 64°
2026-05-04 11:20 57.84589 -171.31928 31173 ft 475 kts 65°
2026-05-04 11:20 57.86876 -171.20666 31183 ft 475 kts 65°
2026-05-04 11:22 57.96022 -170.74973 31158 ft 472 kts 65°
2026-05-04 11:23 57.98482 -170.63550 31173 ft 472 kts 64°
2026-05-04 11:25 58.06988 -170.23824 31167 ft 473 kts 65°
2026-05-04 11:25 58.09444 -170.12167 31164 ft 470 kts 65°
2026-05-04 11:27 58.20237 -169.60143 31172 ft 470 kts 65°
2026-05-04 11:28 58.22601 -169.48561 31170 ft 471 kts 65°
2026-05-04 11:28 58.24967 -169.36905 31185 ft 471 kts 66°
2026-05-04 11:29 58.27314 -169.25275 31165 ft 471 kts 66°
2026-05-04 11:29 58.29659 -169.13585 31171 ft 471 kts 66°
2026-05-04 11:33 58.45769 -168.31358 31163 ft 474 kts 69°
2026-05-04 11:33 58.48061 -168.19374 31161 ft 473 kts 69°
2026-05-04 11:34 58.50332 -168.07425 31147 ft 474 kts 69°
2026-05-04 11:34 58.52589 -167.95477 31162 ft 475 kts 69°
2026-05-04 11:35 58.54847 -167.83444 31156 ft 475 kts 69°
2026-05-04 11:35 58.57081 -167.71472 31141 ft 475 kts 69°
2026-05-04 11:36 58.59290 -167.59558 31157 ft 475 kts 69°
2026-05-04 11:36 58.61494 -167.47592 31146 ft 475 kts 70°
2026-05-04 11:37 58.63705 -167.35509 31151 ft 475 kts 70°
2026-05-04 11:37 58.65912 -167.23377 31143 ft 476 kts 71°
2026-05-04 11:38 58.68126 -167.11125 31138 ft 476 kts 71°
2026-05-04 11:38 58.70300 -166.99020 31151 ft 477 kts 71°
2026-05-04 11:39 58.72499 -166.86888 31142 ft 474 kts 71°
2026-05-04 11:41 58.80096 -166.44522 31122 ft 478 kts 72°
2026-05-04 11:41 58.82220 -166.32492 31126 ft 479 kts 73°
2026-05-04 11:42 58.84402 -166.20056 31115 ft 480 kts 73°
2026-05-04 11:42 58.86552 -166.07710 31110 ft 483 kts 73°
2026-05-04 11:43 58.88707 -165.95258 31115 ft 484 kts 73°
2026-05-04 11:43 58.90851 -165.82867 31109 ft 485 kts 73°
2026-05-04 11:44 58.93002 -165.70378 31110 ft 485 kts 73°
2026-05-04 11:44 58.95178 -165.57648 31099 ft 487 kts 74°
2026-05-04 11:45 58.97295 -165.45174 31105 ft 486 kts 74°
2026-05-04 11:45 58.99412 -165.32616 31098 ft 487 kts 75°
2026-05-04 11:46 59.01516 -165.20046 31096 ft 488 kts 75°
2026-05-04 11:46 59.03615 -165.07416 31090 ft 489 kts 76°
2026-05-04 11:47 59.05735 -164.94563 31087 ft 492 kts 76°
2026-05-04 11:47 59.07827 -164.81793 31084 ft 492 kts 76°
2026-05-04 11:48 59.09932 -164.68854 31082 ft 492 kts 76°
2026-05-04 11:48 59.11952 -164.56342 31074 ft 492 kts 76°
2026-05-04 11:49 59.13974 -164.43730 31073 ft 494 kts 77°
2026-05-04 11:49 59.16011 -164.30928 31077 ft 494 kts 78°
2026-05-04 11:50 59.18044 -164.18057 31067 ft 497 kts 78°
2026-05-04 11:50 59.19971 -164.05768 31066 ft 498 kts 78°
2026-05-04 11:51 59.21993 -163.92776 31060 ft 498 kts 78°
2026-05-04 11:51 59.24007 -163.79741 31057 ft 499 kts 78°
2026-05-04 11:52 59.26001 -163.66731 31053 ft 502 kts 79°
2026-05-04 11:52 59.28003 -163.53571 31041 ft 503 kts 79°
2026-05-04 11:53 59.29985 -163.40437 31044 ft 504 kts 79°
2026-05-04 11:53 59.31620 -163.29527 31051 ft 504 kts 80°
2026-05-04 11:55 59.39230 -162.77779 31030 ft 506 kts 81°
2026-05-04 11:56 59.41155 -162.64412 31027 ft 510 kts 81°
2026-05-04 11:56 59.43079 -162.50966 31024 ft 508 kts 81°
2026-05-04 11:57 59.44980 -162.37550 31024 ft 510 kts 81°
2026-05-04 11:57 59.47017 -162.24101 31017 ft 509 kts 78°
2026-05-04 11:58 59.49293 -162.10846 31018 ft 511 kts 78°
2026-05-04 11:58 59.51568 -161.97412 31011 ft 512 kts 79°
2026-05-04 11:59 59.53775 -161.84227 31008 ft 513 kts 79°
2026-05-04 11:59 59.56014 -161.70717 31015 ft 510 kts 79°
2026-05-04 12:00 59.58222 -161.57266 31000 ft 509 kts 79°
2026-05-04 12:00 59.60431 -161.43689 30998 ft 512 kts 79°
2026-05-04 12:01 59.62610 -161.30196 30984 ft 512 kts 80°
2026-05-04 12:02 59.69921 -160.84126 30964 ft 509 kts 80°
2026-05-04 12:03 59.72027 -160.70612 30972 ft 512 kts 80°
2026-05-04 12:03 59.74115 -160.57129 30954 ft 508 kts 80°
2026-05-04 12:04 59.76220 -160.43411 30944 ft 512 kts 80°
2026-05-04 12:04 59.78292 -160.29811 30934 ft 508 kts 81°
2026-05-04 12:05 59.80293 -160.16563 30931 ft 507 kts 81°
2026-05-04 12:05 59.82058 -160.04794 30936 ft 506 kts 81°
2026-05-04 12:06 59.83299 -159.96462 30933 ft 509 kts 81°
2026-05-04 12:06 59.84565 -159.87927 30948 ft 505 kts 81°
2026-05-04 12:07 59.86543 -159.74495 30952 ft 507 kts 81°
2026-05-04 12:07 59.88515 -159.61005 30967 ft 505 kts 81°
2026-05-04 12:08 59.90472 -159.47508 30980 ft 503 kts 81°
2026-05-04 12:08 59.92419 -159.33963 30975 ft 503 kts 82°
2026-05-04 12:09 59.94321 -159.20621 30962 ft 502 kts 82°
2026-05-04 12:09 59.96206 -159.07281 30956 ft 503 kts 82°
2026-05-04 12:10 59.98089 -158.93858 30941 ft 503 kts 81°
2026-05-04 12:10 59.99968 -158.80335 30962 ft 504 kts 81°
2026-05-04 12:11 60.01520 -158.69086 30989 ft 504 kts 82°
2026-05-04 12:11 60.02420 -158.62524 30983 ft 504 kts 82°
2026-05-04 12:12 60.03954 -158.51276 30980 ft 504 kts 82°
2026-05-04 12:12 60.05267 -158.41588 30988 ft 506 kts 81°
2026-05-04 12:14 60.11998 -157.90941 30953 ft 505 kts 83°
2026-05-04 12:15 60.13707 -157.77811 30948 ft 506 kts 82°
2026-05-04 12:15 60.15408 -157.64632 30947 ft 504 kts 82°
2026-05-04 12:16 60.17166 -157.50876 30955 ft 505 kts 82°
2026-05-04 12:16 60.18898 -157.37215 30950 ft 504 kts 83°
2026-05-04 12:17 60.20609 -157.23587 30943 ft 503 kts 83°
2026-05-04 12:17 60.22223 -157.10620 30946 ft 502 kts 84°
2026-05-04 12:18 60.23867 -156.97281 30940 ft 502 kts 83°
2026-05-04 12:18 60.25507 -156.83852 30939 ft 504 kts 83°
2026-05-04 12:19 60.27172 -156.70100 30934 ft 505 kts 83°
2026-05-04 12:19 60.28833 -156.56233 30940 ft 507 kts 83°
2026-05-04 12:20 60.30486 -156.42319 30939 ft 506 kts 83°
2026-05-04 12:20 60.32119 -156.28422 30942 ft 505 kts 84°
2026-05-04 12:21 60.33287 -156.18405 30946 ft 508 kts 84°
2026-05-04 12:21 60.34799 -156.05325 30938 ft 508 kts 84°
2026-05-04 12:22 60.36407 -155.91272 30934 ft 509 kts 84°
2026-05-04 12:22 60.37993 -155.77274 30935 ft 509 kts 84°
2026-05-04 12:23 60.39508 -155.63777 30942 ft 509 kts 84°
2026-05-04 12:23 60.41058 -155.49815 30855 ft 504 kts 84°
2026-05-04 12:24 60.41816 -155.42956 30279 ft 501 kts 84°
2026-05-04 12:24 60.42581 -155.35997 29866 ft 493 kts 84°
2026-05-04 12:24 60.43298 -155.29436 29442 ft 486 kts 85°
2026-05-04 12:24 60.43965 -155.23297 29014 ft 481 kts 85°
2026-05-04 12:25 60.44647 -155.16983 28565 ft 475 kts 85°
2026-05-04 12:25 60.45348 -155.10461 28102 ft 470 kts 85°
2026-05-04 12:25 60.46043 -155.03931 27634 ft 481 kts 85°
2026-05-04 12:25 60.46757 -154.97183 27130 ft 483 kts 85°
2026-05-04 12:26 60.47460 -154.90546 26628 ft 480 kts 84°
2026-05-04 12:26 60.48149 -154.84018 26141 ft 475 kts 84°
2026-05-04 12:26 60.48833 -154.77499 25634 ft 469 kts 84°
2026-05-04 12:26 60.49508 -154.71036 25128 ft 464 kts 84°
2026-05-04 12:27 60.50200 -154.64572 24656 ft 461 kts 82°
2026-05-04 12:27 60.51030 -154.58374 24583 ft 456 kts 80°
2026-05-04 12:27 60.51896 -154.52017 24549 ft 468 kts 80°
2026-05-04 12:27 60.52768 -154.45592 24434 ft 465 kts 81°
2026-05-04 12:28 60.53628 -154.39192 24305 ft 463 kts 80°
2026-05-04 12:28 60.54460 -154.32962 24169 ft 462 kts 82°
2026-05-04 12:28 60.55294 -154.26666 24040 ft 461 kts 81°
2026-05-04 12:28 60.56091 -154.20616 23915 ft 459 kts 81°
2026-05-04 12:29 60.56923 -154.14258 23787 ft 460 kts 81°
2026-05-04 12:29 60.57742 -154.07976 23658 ft 457 kts 81°
2026-05-04 12:29 60.58554 -154.01714 23527 ft 457 kts 81°
2026-05-04 12:29 60.59369 -153.95398 23395 ft 454 kts 82°
2026-05-04 12:30 60.60164 -153.89210 23263 ft 454 kts 82°
2026-05-04 12:30 60.60959 -153.82999 23127 ft 454 kts 81°
2026-05-04 12:30 60.61764 -153.76675 23001 ft 452 kts 81°
2026-05-04 12:30 60.62547 -153.70502 22865 ft 451 kts 81°
2026-05-04 12:31 60.63322 -153.64354 22739 ft 453 kts 81°
2026-05-04 12:31 60.64124 -153.57980 22601 ft 451 kts 81°
2026-05-04 12:31 60.64914 -153.51675 22463 ft 448 kts 81°
2026-05-04 12:31 60.65583 -153.46301 22356 ft 450 kts 81°
2026-05-04 12:32 60.67156 -153.33618 22065 ft 446 kts 82°
2026-05-04 12:32 60.67913 -153.27475 21934 ft 443 kts 82°
2026-05-04 12:33 60.68631 -153.21614 21813 ft 443 kts 82°
2026-05-04 12:33 60.69378 -153.15492 21688 ft 442 kts 82°
2026-05-04 12:33 60.70123 -153.09372 21560 ft 441 kts 81°
2026-05-04 12:33 60.70862 -153.03261 21429 ft 441 kts 82°
2026-05-04 12:34 60.71559 -152.97482 21334 ft 440 kts 82°
2026-05-04 12:34 60.72263 -152.91621 21229 ft 439 kts 81°
2026-05-04 12:34 60.72993 -152.85509 21077 ft 441 kts 81°
2026-05-04 12:34 60.73723 -152.79384 20951 ft 440 kts 81°
2026-05-04 12:35 60.74449 -152.73271 20758 ft 439 kts 82°
2026-05-04 12:35 60.74952 -152.69006 20386 ft 441 kts 81°
2026-05-04 12:35 60.75642 -152.63142 19805 ft 440 kts 81°
2026-05-04 12:35 60.76351 -152.57111 19254 ft 436 kts 81°
2026-05-04 12:36 60.77039 -152.51228 18803 ft 430 kts 81°
2026-05-04 12:36 60.77695 -152.45593 18369 ft 424 kts 81°
2026-05-04 12:36 60.78388 -152.39612 17942 ft 419 kts 81°
2026-05-04 12:36 60.79057 -152.33812 17450 ft 415 kts 82°
2026-05-04 12:37 60.79688 -152.28320 17013 ft 411 kts 82°
2026-05-04 12:37 60.80339 -152.22623 16526 ft 408 kts 81°
2026-05-04 12:37 60.80927 -152.17456 16077 ft 404 kts 82°
2026-05-04 12:37 60.81536 -152.11844 15604 ft 399 kts 83°
2026-05-04 12:38 60.82048 -152.06638 15166 ft 396 kts 83°
2026-05-04 12:38 60.82585 -152.01128 14689 ft 392 kts 83°
2026-05-04 12:38 60.83117 -151.95662 14199 ft 388 kts 83°
2026-05-04 12:38 60.83642 -151.90271 13737 ft 384 kts 83°
2026-05-04 12:39 60.84163 -151.84891 13266 ft 380 kts 83°
2026-05-04 12:39 60.84682 -151.79535 12785 ft 376 kts 82°
2026-05-04 12:39 60.85196 -151.74205 12324 ft 372 kts 83°
2026-05-04 12:39 60.85696 -151.69008 11885 ft 367 kts 83°
2026-05-04 12:40 60.86190 -151.63837 11420 ft 364 kts 83°
2026-05-04 12:40 60.86682 -151.58675 10966 ft 360 kts 84°
2026-05-04 12:40 60.87164 -151.53589 10562 ft 356 kts 83°
2026-05-04 12:40 60.87639 -151.48624 10049 ft 348 kts 80°
2026-05-04 12:41 60.88377 -151.44006 9905 ft 330 kts 72°
2026-05-04 12:41 60.89204 -151.39737 9647 ft 316 kts 71°
2026-05-04 12:41 60.90027 -151.35550 9397 ft 306 kts 72°
2026-05-04 12:41 60.90815 -151.31525 9153 ft 297 kts 73°
2026-05-04 12:42 60.91572 -151.27640 8963 ft 287 kts 73°
2026-05-04 12:42 60.92313 -151.23831 8762 ft 282 kts 73°
2026-05-04 12:42 60.92966 -151.20458 8594 ft 280 kts 73°
2026-05-04 12:42 60.93692 -151.16710 8396 ft 278 kts 72°
2026-05-04 12:43 60.94407 -151.13007 8222 ft 276 kts 72°
2026-05-04 12:43 60.95187 -151.09399 8005 ft 278 kts 59°
2026-05-04 12:43 60.96448 -151.06430 7803 ft 276 kts 47°
2026-05-04 12:43 60.97899 -151.03664 7554 ft 279 kts 45°
2026-05-04 12:44 60.99348 -151.00974 7323 ft 276 kts 45°
2026-05-04 12:44 61.00803 -150.98263 7060 ft 275 kts 46°
2026-05-04 12:44 61.02231 -150.95593 6874 ft 273 kts 45°
2026-05-04 12:44 61.03668 -150.92903 6636 ft 272 kts 45°
2026-05-04 12:45 61.05076 -150.90262 6373 ft 268 kts 45°
2026-05-04 12:45 61.06471 -150.87637 6176 ft 266 kts 45°
2026-05-04 12:45 61.07860 -150.85023 5960 ft 265 kts 45°
2026-05-04 12:45 61.09246 -150.82410 5696 ft 263 kts 44°
2026-05-04 12:46 61.10607 -150.79845 5494 ft 262 kts 45°
2026-05-04 12:46 61.11984 -150.77245 5259 ft 259 kts 44°
2026-05-04 12:46 61.13341 -150.74678 5047 ft 258 kts 44°
2026-05-04 12:46 61.14540 -150.71909 4806 ft 253 kts 63°
2026-05-04 12:47 61.15260 -150.68504 4606 ft 249 kts 71°
2026-05-04 12:47 61.15837 -150.65106 4409 ft 244 kts 72°
2026-05-04 12:47 61.16377 -150.61748 4200 ft 237 kts 77°
2026-05-04 12:47 61.16662 -150.58461 4018 ft 228 kts 86°
2026-05-04 12:48 61.16709 -150.55171 3769 ft 222 kts 90°
2026-05-04 12:48 61.16703 -150.52014 3617 ft 212 kts 91°
2026-05-04 12:48 61.16696 -150.49005 3517 ft 199 kts 90°
2026-05-04 12:48 61.16695 -150.46158 3433 ft 185 kts 90°
2026-05-04 12:49 61.16698 -150.43527 3356 ft 177 kts 90°
2026-05-04 12:49 61.16704 -150.40970 3258 ft 175 kts 89°
2026-05-04 12:49 61.16712 -150.38379 3058 ft 175 kts 89°
2026-05-04 12:49 61.16720 -150.36110 2993 ft 174 kts 89°
2026-05-04 12:50 61.16728 -150.33597 2983 ft 173 kts 90°
2026-05-04 12:50 61.16736 -150.31017 2798 ft 176 kts 90°
2026-05-04 12:50 61.16742 -150.28549 2571 ft 170 kts 90°
2026-05-04 12:50 61.16746 -150.26192 2339 ft 157 kts 89°
2026-05-04 12:51 61.16750 -150.23910 2130 ft 153 kts 89°
2026-05-04 12:51 61.16755 -150.21719 1918 ft 147 kts 89°
2026-05-04 12:51 61.16759 -150.19585 1718 ft 145 kts 89°
2026-05-04 12:51 61.16764 -150.17476 1512 ft 145 kts 89°
2026-05-04 12:52 61.16768 -150.15370 1308 ft 146 kts 89°
2026-05-04 12:52 61.16769 -150.13205 1101 ft 148 kts 89°
2026-05-04 12:52 61.16779 -150.11032 899 ft 149 kts 89°
2026-05-04 12:52 61.16783 -150.08852 652 ft 153 kts 89°
2026-05-04 12:53 61.16780 -150.06586 417 ft 156 kts 90°
2026-05-04 12:53 61.16782 -150.04292 205 ft 155 kts 89°
2026-05-04 12:53 61.16785 -150.02231 168 ft 129 kts 89°
2026-05-04 12:53 61.16786 -150.00685 167 ft 84 kts 90°
2026-05-04 12:54 61.16789 -149.99785 167 ft 40 kts 81°
2026-05-04 12:54 61.16860 -149.99484 167 ft 14 kts 55°
2026-05-04 12:54 61.16928 -149.99377 167 ft 11 kts
2026-05-04 12:54 61.17001 -149.99420 167 ft 11 kts 339°
2026-05-04 12:55 61.17083 -149.99469 167 ft 13 kts 347°
2026-05-04 12:55 61.17178 -149.99518 167 ft 14 kts 345°
2026-05-04 12:55 61.17274 -149.99574 167 ft 14 kts 344°
2026-05-04 12:55 61.17373 -149.99631 167 ft 15 kts 346°
2026-05-04 12:56 61.17479 -149.99689 167 ft 15 kts 345°
2026-05-04 12:56 61.17588 -149.99750 167 ft 15 kts 345°
2026-05-04 12:56 61.17691 -149.99808 167 ft 13 kts 345°
2026-05-04 12:56 61.17705 -149.99817 167 ft 0 kts 344°
2026-05-04 12:57 61.17708 -149.99818 167 ft 2 kts 344°
2026-05-04 12:57 61.17751 -149.99843 167 ft 10 kts 344°
2026-05-04 12:57 61.17845 -149.99898 167 ft 16 kts 345°
2026-05-04 12:57 61.17952 -149.99960 167 ft 15 kts 344°
2026-05-04 12:58 61.18053 -150.00018 167 ft 14 kts 345°
2026-05-04 12:58 61.18159 -150.00076 167 ft 16 kts 345°
2026-05-04 12:58 61.18272 -150.00143 167 ft 17 kts 344°
2026-05-04 12:58 61.18392 -150.00215 167 ft 18 kts 344°
2026-05-04 12:59 61.18504 -150.00276 167 ft 15 kts 345°
2026-05-04 12:59 61.18599 -150.00326 167 ft 12 kts 344°
2026-05-04 12:59 61.18671 -150.00362 167 ft 7 kts 17°
2026-05-04 12:59 61.18699 -150.00258 167 ft 9 kts 76°
2026-05-04 13:00 61.18715 -150.00130 167 ft 9 kts 76°
2026-05-04 13:00 61.18719 -150.00026 167 ft 5 kts 116°
2026-05-04 13:00 61.18687 -149.99986 167 ft 6 kts 166°
2026-05-04 13:00 61.18649 -149.99965 167 ft 0 kts 164°